Volver al catálogo

STARLINK-34514

ActivoComunicacionesVLEO
NORAD 64416·PAYLOAD·🇺🇸 United States

Lanzado Jun 17, 2025 desde Vandenberg Space Force Base

Loading…

Próximos Pases (próximas 24 horas)

TLE

ActualizadoSource: CelesTrak SupGP

Época: Sep 15, 2026, 03:40 UTC

1 64416C 25129E   26258.15326389  .00025868  00000+0  89978-3 0  2580
2 64416  69.9993 314.8521 0003441 266.4731 134.6588 15.29568187    11

Sigue STARLINK-34514 en tiempo real con AllMySat

Download on the App Store